Time,TemperatureF,DewpointF,PressureIn,WindDirection,WindDirectionDegrees,WindSpeedMPH,WindSpeedGustMPH,Humidity,HourlyPrecipIn,Conditions,Clouds,dailyrainin,SoftwareType,DateUTC
2013-01-23 00:07:00,27.9,12.0,30.45,SSW,204,0.0,-999.0,51,-99.99,,,0.00,weatherlink.com 1.10,2013-01-23 05:07:00,
2013-01-23 00:22:00,27.8,11.0,30.45,SSW,202,0.0,-999.0,50,-99.99,,,0.00,weatherlink.com 1.10,2013-01-23 05:22:00,
2013-01-23 00:37:00,28.1,12.0,30.45,SSW,202,0.0,-999.0,50,-99.99,,,0.00,weatherlink.com 1.10,2013-01-23 05:37:00,
2013-01-23 00:52:00,28.2,11.0,30.45,SSW,201,0.0,-999.0,49,-99.99,,,0.00,weatherlink.com 1.10,2013-01-23 05:52:00,
2013-01-23 01:07:00,28.3,12.0,30.45,SSW,202,0.0,-999.0,51,-99.99,,,0.00,weatherlink.com 1.10,2013-01-23 06:07:00,
2013-01-23 01:22:00,28.1,11.0,30.45,SSW,204,0.0,-999.0,49,-99.99,,,0.00,weatherlink.com 1.10,2013-01-23 06:22:00,
2013-01-23 01:37:00,28.2,12.0,30.45,ENE,67,0.0,-999.0,50,-99.99,,,0.00,weatherlink.com 1.10,2013-01-23 06:37:00,
2013-01-23 01:52:00,28.1,12.0,30.45,ENE,67,0.0,-999.0,51,-99.99,,,0.00,weatherlink.com 1.10,2013-01-23 06:52:00,
2013-01-23 02:07:00,28.2,11.0,30.45,SE,139,0.0,-999.0,49,-99.99,,,0.00,weatherlink.com 1.10,2013-01-23 07:07:00,
2013-01-23 02:22:00,28.2,12.0,30.45,SE,139,0.0,-999.0,51,-99.99,,,0.00,weatherlink.com 1.10,2013-01-23 07:22:00,
2013-01-23 02:37:00,28.1,12.0,30.44,SE,139,0.0,-999.0,52,-99.99,,,0.00,weatherlink.com 1.10,2013-01-23 07:37:00,
2013-01-23 02:52:00,28.1,12.0,30.45,SE,139,0.0,-999.0,52,-99.99,,,0.00,weatherlink.com 1.10,2013-01-23 07:52:00,
2013-01-23 03:07:00,28.2,13.0,30.45,SE,139,0.0,-999.0,54,-99.99,,,0.00,weatherlink.com 1.10,2013-01-23 08:07:00,
2013-01-23 03:22:00,28.1,12.0,30.45,SE,139,0.0,-999.0,51,-99.99,,,0.00,weatherlink.com 1.10,2013-01-23 08:22:00,
2013-01-23 03:37:00,28.2,12.0,30.45,SE,139,0.0,-999.0,52,-99.99,,,0.00,weatherlink.com 1.10,2013-01-23 08:37:00,
2013-01-23 03:52:00,28.2,13.0,30.45,SE,139,0.0,-999.0,54,-99.99,,,0.00,weatherlink.com 1.10,2013-01-23 08:52:00,
2013-01-23 04:07:00,28.1,14.0,30.45,SE,140,0.0,-999.0,56,-99.99,,,0.00,weatherlink.com 1.10,2013-01-23 09:07:00,
2013-01-23 04:22:00,28.0,14.0,30.44,SE,140,0.0,-999.0,56,-99.99,,,0.00,weatherlink.com 1.10,2013-01-23 09:22:00,
2013-01-23 04:37:00,27.9,13.0,30.44,SE,141,0.0,-999.0,53,-99.99,,,0.00,weatherlink.com 1.10,2013-01-23 09:37:00,
2013-01-23 04:52:00,28.0,14.0,30.45,West,281,0.0,-999.0,55,-99.99,,,0.00,weatherlink.com 1.10,2013-01-23 09:52:00,
2013-01-23 05:07:00,27.9,14.0,30.45,West,281,0.0,-999.0,55,-99.99,,,0.00,weatherlink.com 1.10,2013-01-23 10:07:00,
2013-01-23 05:22:00,27.7,13.0,30.45,West,281,0.0,-999.0,55,-99.99,,,0.00,weatherlink.com 1.10,2013-01-23 10:22:00,
2013-01-23 05:37:00,27.9,14.0,30.45,West,281,0.0,-999.0,57,-99.99,,,0.00,weatherlink.com 1.10,2013-01-23 10:37:00,
2013-01-23 05:52:00,28.0,14.0,30.45,West,281,0.0,-999.0,56,-99.99,,,0.00,weatherlink.com 1.10,2013-01-23 10:52:00,
2013-01-23 06:07:00,28.0,14.0,30.45,West,281,0.0,-999.0,56,-99.99,,,0.00,weatherlink.com 1.10,2013-01-23 11:07:00,
2013-01-23 06:22:00,28.1,14.0,30.45,West,281,0.0,-999.0,57,-99.99,,,0.00,weatherlink.com 1.10,2013-01-23 11:22:00,
2013-01-23 06:37:00,28.0,14.0,30.45,West,281,0.0,-999.0,57,-99.99,,,0.00,weatherlink.com 1.10,2013-01-23 11:37:00,
2013-01-23 06:52:00,27.9,15.0,30.46,West,281,0.0,-999.0,58,-99.99,,,0.00,weatherlink.com 1.10,2013-01-23 11:52:00,
2013-01-23 07:07:00,27.9,15.0,30.46,West,281,0.0,-999.0,59,-99.99,,,0.00,weatherlink.com 1.10,2013-01-23 12:07:00,
2013-01-23 07:22:00,27.8,15.0,30.46,West,281,0.0,-999.0,58,-99.99,,,0.00,weatherlink.com 1.10,2013-01-23 12:22:00,
2013-01-23 07:37:00,27.6,15.0,30.46,West,281,0.0,-999.0,59,-99.99,,,0.00,weatherlink.com 1.10,2013-01-23 12:37:00,
2013-01-23 07:52:00,27.6,15.0,30.46,West,281,0.0,-999.0,59,-99.99,,,0.00,weatherlink.com 1.10,2013-01-23 12:52:00,
2013-01-23 08:07:00,27.7,15.0,30.47,West,281,0.0,-999.0,59,-99.99,,,0.00,weatherlink.com 1.10,2013-01-23 13:07:00,
2013-01-23 08:22:00,27.6,14.0,30.46,West,281,0.0,-999.0,58,-99.99,,,0.00,weatherlink.com 1.10,2013-01-23 13:22:00,
2013-01-23 08:37:00,27.9,15.0,30.46,West,281,0.0,-999.0,59,-99.99,,,0.00,weatherlink.com 1.10,2013-01-23 13:37:00,
2013-01-23 08:52:00,28.0,15.0,30.46,West,281,0.0,-999.0,58,-99.99,,,0.00,weatherlink.com 1.10,2013-01-23 13:52:00,
2013-01-23 09:07:00,28.3,15.0,30.46,West,281,0.0,-999.0,59,-99.99,,,0.00,weatherlink.com 1.10,2013-01-23 14:07:00,
2013-01-23 09:37:00,29.2,16.0,30.47,West,281,0.0,-999.0,58,-99.99,,,0.00,weatherlink.com 1.10,2013-01-23 14:37:00,
2013-01-23 09:52:00,28.8,15.0,30.47,West,281,0.0,-999.0,57,-99.99,,,0.00,weatherlink.com 1.10,2013-01-23 14:52:00,
2013-01-23 10:07:00,28.9,16.0,30.48,West,281,0.0,-999.0,58,-99.99,,,0.00,weatherlink.com 1.10,2013-01-23 15:07:00,
2013-01-23 10:22:00,29.9,16.0,30.48,West,274,0.0,-999.0,56,-99.99,,,0.00,weatherlink.com 1.10,2013-01-23 15:22:00,
2013-01-23 10:37:00,30.7,17.0,30.48,West,274,0.0,-999.0,56,-99.99,,,0.00,weatherlink.com 1.10,2013-01-23 15:37:00,
2013-01-23 10:52:00,31.4,17.0,30.47,West,274,0.0,-999.0,55,-99.99,,,0.00,weatherlink.com 1.10,2013-01-23 15:52:00,
2013-01-23 11:07:00,32.2,17.0,30.47,SE,146,0.0,-999.0,54,-99.99,,,0.00,weatherlink.com 1.10,2013-01-23 16:07:00,
2013-01-23 11:22:00,33.3,18.0,30.47,SSW,196,0.0,-999.0,53,-99.99,,,0.00,weatherlink.com 1.10,2013-01-23 16:22:00,
2013-01-23 11:37:00,34.2,18.0,30.46,West,262,0.0,-999.0,51,-99.99,,,0.00,weatherlink.com 1.10,2013-01-23 16:37:00,
2013-01-23 11:52:00,34.9,18.0,30.46,SW,226,0.0,-999.0,50,-99.99,,,0.00,weatherlink.com 1.10,2013-01-23 16:52:00,
2013-01-23 12:07:00,35.8,18.0,30.45,WSW,257,0.0,-999.0,49,-99.99,,,0.00,weatherlink.com 1.10,2013-01-23 17:07:00,
2013-01-23 12:23:00,36.6,18.0,30.43,NNW,345,2.0,-999.0,48,-99.99,,,0.00,weatherlink.com 1.10,2013-01-23 17:23:00,
2013-01-23 12:37:00,37.7,19.0,30.42,SSE,150,0.0,-999.0,47,-99.99,,,0.00,weatherlink.com 1.10,2013-01-23 17:37:00,
2013-01-23 12:52:00,38.1,19.0,30.41,West,264,0.0,-999.0,47,-99.99,,,0.00,weatherlink.com 1.10,2013-01-23 17:52:00,
2013-01-23 13:22:00,39.4,21.0,30.39,SW,225,2.0,-999.0,47,-99.99,,,0.00,weatherlink.com 1.10,2013-01-23 18:22:00,
2013-01-23 13:37:00,39.6,21.0,30.38,ENE,67,1.0,-999.0,48,-99.99,,,0.00,weatherlink.com 1.10,2013-01-23 18:37:00,
2013-01-23 13:52:00,40.4,21.0,30.38,SE,132,1.0,-999.0,47,-99.99,,,0.00,weatherlink.com 1.10,2013-01-23 18:52:00,
2013-01-23 14:07:00,40.7,22.0,30.36,WSW,240,0.0,-999.0,47,-99.99,,,0.00,weatherlink.com 1.10,2013-01-23 19:07:00,
2013-01-23 14:37:00,42.2,23.0,30.35,South,170,0.0,-999.0,47,-99.99,,,0.00,weatherlink.com 1.10,2013-01-23 19:37:00,
2013-01-23 14:52:00,43.2,24.0,30.35,ESE,112,0.0,-999.0,47,-99.99,,,0.00,weatherlink.com 1.10,2013-01-23 19:52:00,
2013-01-23 15:07:00,43.5,24.0,30.34,SW,220,0.0,-999.0,46,-99.99,,,0.00,weatherlink.com 1.10,2013-01-23 20:07:00,
2013-01-23 15:22:00,44.3,25.0,30.33,SSE,166,0.0,-999.0,47,-99.99,,,0.00,weatherlink.com 1.10,2013-01-23 20:22:00,
2013-01-23 15:37:00,45.1,25.0,30.33,SW,226,1.0,-999.0,45,-99.99,,,0.00,weatherlink.com 1.10,2013-01-23 20:37:00,
2013-01-23 15:52:00,45.8,25.0,30.32,WSW,240,2.0,-999.0,45,-99.99,,,0.00,weatherlink.com 1.10,2013-01-23 20:52:00,
2013-01-23 16:07:00,46.0,26.0,30.32,SW,217,2.0,-999.0,45,-99.99,,,0.00,weatherlink.com 1.10,2013-01-23 21:07:00,
2013-01-23 16:22:00,46.0,27.0,30.32,SSE,152,1.0,-999.0,47,-99.99,,,0.00,weatherlink.com 1.10,2013-01-23 21:22:00,
2013-01-23 16:37:00,46.2,26.0,30.31,East,87,5.0,-999.0,46,-99.99,,,0.00,weatherlink.com 1.10,2013-01-23 21:37:00,
2013-01-23 16:52:00,45.8,27.0,30.31,SSE,166,3.0,-999.0,48,-99.99,,,0.00,weatherlink.com 1.10,2013-01-23 21:52:00,
2013-01-23 17:07:00,45.9,27.0,30.30,WSW,238,1.0,-999.0,48,-99.99,,,0.00,weatherlink.com 1.10,2013-01-23 22:07:00,
2013-01-23 17:22:00,45.8,27.0,30.30,SSE,149,0.0,-999.0,49,-99.99,,,0.00,weatherlink.com 1.10,2013-01-23 22:22:00,
2013-01-23 17:37:00,45.4,27.0,30.30,SSE,158,2.0,-999.0,49,-99.99,,,0.00,weatherlink.com 1.10,2013-01-23 22:37:00,
2013-01-23 17:52:00,44.8,27.0,30.30,SSW,198,0.0,-999.0,51,-99.99,,,0.00,weatherlink.com 1.10,2013-01-23 22:52:00,
2013-01-23 18:08:00,44.3,27.0,30.30,ESE,112,0.0,-999.0,52,-99.99,,,0.00,weatherlink.com 1.10,2013-01-23 23:08:00,
2013-01-23 18:22:00,44.1,28.0,30.30,ESE,118,1.0,-999.0,53,-99.99,,,0.00,weatherlink.com 1.10,2013-01-23 23:22:00,
2013-01-23 18:37:00,43.8,28.0,30.30,SSW,200,0.0,-999.0,54,-99.99,,,0.00,weatherlink.com 1.10,2013-01-23 23:37:00,
2013-01-23 18:52:00,43.6,28.0,30.29,SW,224,0.0,-999.0,54,-99.99,,,0.00,weatherlink.com 1.10,2013-01-23 23:52:00,
2013-01-23 19:07:00,43.7,28.0,30.29,South,175,0.0,-999.0,55,-99.99,,,0.00,weatherlink.com 1.10,2013-01-24 00:07:00,
2013-01-23 19:22:00,43.6,29.0,30.29,SSW,209,0.0,-999.0,56,-99.99,,,0.00,weatherlink.com 1.10,2013-01-24 00:22:00,
2013-01-23 19:37:00,43.4,28.0,30.28,SE,144,1.0,-999.0,56,-99.99,,,0.00,weatherlink.com 1.10,2013-01-24 00:37:00,
2013-01-23 19:52:00,43.4,29.0,30.28,SSE,164,0.0,-999.0,57,-99.99,,,0.00,weatherlink.com 1.10,2013-01-24 00:52:00,
2013-01-23 20:07:00,43.3,29.0,30.28,SSW,199,0.0,-999.0,58,-99.99,,,0.00,weatherlink.com 1.10,2013-01-24 01:07:00,
2013-01-23 20:23:00,43.6,30.0,30.28,South,183,1.0,-999.0,59,-99.99,,,0.00,weatherlink.com 1.10,2013-01-24 01:23:00,
2013-01-23 20:37:00,43.4,30.0,30.29,South,172,0.0,-999.0,59,-99.99,,,0.00,weatherlink.com 1.10,2013-01-24 01:37:00,
2013-01-23 20:53:00,43.5,30.0,30.28,South,175,0.0,-999.0,59,-99.99,,,0.00,weatherlink.com 1.10,2013-01-24 01:53:00,
2013-01-23 21:07:00,43.3,30.0,30.27,SE,137,0.0,-999.0,59,-99.99,,,0.00,weatherlink.com 1.10,2013-01-24 02:07:00,
2013-01-23 21:22:00,43.3,31.0,30.27,ESE,108,0.0,-999.0,62,-99.99,,,0.00,weatherlink.com 1.10,2013-01-24 02:22:00,
2013-01-23 21:37:00,43.0,31.0,30.27,West,269,2.0,-999.0,64,-99.99,,,0.00,weatherlink.com 1.10,2013-01-24 02:37:00,
2013-01-23 21:53:00,43.6,32.0,30.27,SW,219,10.0,-999.0,64,-99.99,,,0.00,weatherlink.com 1.10,2013-01-24 02:53:00,
2013-01-23 22:07:00,43.6,32.0,30.27,South,176,3.0,-999.0,65,-99.99,,,0.00,weatherlink.com 1.10,2013-01-24 03:07:00,
2013-01-23 22:22:00,43.6,33.0,30.27,SSE,166,3.0,-999.0,66,-99.99,,,0.00,weatherlink.com 1.10,2013-01-24 03:22:00,
2013-01-23 22:37:00,43.7,33.0,30.27,SW,231,2.0,-999.0,66,-99.99,,,0.00,weatherlink.com 1.10,2013-01-24 03:37:00,
2013-01-23 22:52:00,43.8,33.0,30.28,SSE,164,6.0,-999.0,67,-99.99,,,0.00,weatherlink.com 1.10,2013-01-24 03:52:00,
2013-01-23 23:07:00,44.0,34.0,30.28,SSW,203,3.0,-999.0,67,-99.99,,,0.00,weatherlink.com 1.10,2013-01-24 04:07:00,
2013-01-23 23:24:00,44.4,34.0,30.28,WSW,243,5.0,-999.0,68,-99.99,,,0.00,weatherlink.com 1.10,2013-01-24 04:24:00,
2013-01-23 23:37:00,44.8,35.0,30.28,SW,230,5.0,-999.0,68,-99.99,,,0.00,weatherlink.com 1.10,2013-01-24 04:37:00,
2013-01-23 23:53:00,44.9,35.0,30.28,North,6,0.0,-999.0,69,-99.99,,,0.00,weatherlink.com 1.10,2013-01-24 04:53:00,